Terminal Aerodrome Forecast
Issued by NWS

Home | Current Version | Previous Version | Text Only | Print | Product List | Glossary On
Versions: 1 2 3 4 5 6 7 8 9 10 11 12 13 14 15 16
000
FTUS43 KEAX 130500
TAFMKC
TAF
KMKC 130520Z 1306/1406 03003KT P6SM SKC
     FM130800 03002KT 5SM BR SKC
      TEMPO 1310/1313 2SM BR
     FM131600 12007KT P6SM SKC=

USA.gov is the U.S. government's official web portal to all federal, state and local government web resources and services.